This is the latest recevied weather packets stored in our database for station/object KI5NXU. If no packets are shown the sender has not sent any weather packets the latest 10 day(s).
| Time | Temp. | Humidity | Pressure | Rain* | Wind** | Luminosity | Snow |
|---|---|---|---|---|---|---|---|
| 1787788652 | 38.33° C | 39% | 1013.4 hPa | 0 mm | - | 64 W/m² | - |
| 1787788347 | 38.33° C | 38% | 1013.3 hPa | 0 mm | - | 119 W/m² | - |
| 1787788042 | 38.33° C | 38% | 1013.2 hPa | 0 mm | - | 128 W/m² | - |
| 1787787737 | 38.33° C | 38% | 1012.9 hPa | 0 mm | - | 159 W/m² | - |
| 1787787436 | 38.33° C | 38% | 1013.3 hPa | 0 mm | - | 112 W/m² | - |
| 1787787130 | 37.78° C | 39% | 1012.8 hPa | 0 mm | - | 158 W/m² | - |
| 1787786824 | 38.33° C | 38% | 1012.7 hPa | 0 mm | - | 217 W/m² | - |
| 1787786520 | 38.89° C | 38% | 1012.8 hPa | 0 mm | - | 223 W/m² | - |
| 1787786215 | 38.89° C | 38% | 1012.7 hPa | 0 mm | - | 255 W/m² | - |
| 1787785911 | 38.89° C | 39% | 1013.2 hPa | 0 mm | - | 188 W/m² | - |
| 1787785606 | 38.89° C | 39% | 1013.2 hPa | 0 mm | - | 297 W/m² | - |
| 1787785301 | 38.33° C | 40% | 1013.3 hPa | 0 mm | - | 301 W/m² | - |
| 1787785000 | 38.89° C | 38% | 1013.4 hPa | 0 mm | - | 214 W/m² | - |
| 1787784700 | 37.78° C | 39% | 1013.3 hPa | 0 mm | - | 234 W/m² | - |
| 1787784399 | 37.78° C | 40% | 1013.3 hPa | 0 mm | - | 196 W/m² | - |
| 1787784093 | 37.78° C | 40% | 1013.2 hPa | 0 mm | - | 138 W/m² | - |
| 1787783790 | 38.33° C | 41% | 1013.5 hPa | 0 mm | - | 193 W/m² | - |
| 1787783489 | 38.33° C | 40% | 1013.6 hPa | 0 mm | - | 455 W/m² | - |
| 1787783185 | 38.33° C | 40% | 1013.7 hPa | 0 mm | - | 229 W/m² | - |
| 1787782881 | 37.78° C | 40% | 1013.8 hPa | 0 mm | - | 205 W/m² | - |
| 1787782580 | 38.33° C | 39% | 1013.7 hPa | 0 mm | - | 179 W/m² | - |
| 1787782275 | 37.78° C | 39% | 1013.7 hPa | 0 mm | - | 175 W/m² | - |
| 1787781971 | 37.78° C | 40% | 1014 hPa | 0 mm | - | 184 W/m² | - |
| 1787781666 | 38.89° C | 39% | 1013.9 hPa | 0 mm | - | 246 W/m² | - |
| 1787781363 | 38.89° C | 39% | 1014 hPa | 0 mm | - | 537 W/m² | - |
* Rain latest hour (hover to see other rain measurements)
** Current wind speed in m/s (hover to see current wind gust speed)